Location: Unspecified
(0.0000°N, 0.0000°E)
Time: 11:15:11
(UTC+00:00)

Vanguard 2 - Pass Details

Date: 19 November 2019
Orbit: 553 x 2938 km, 32.9° (Epoch: 14 December)

Event Time Altitude Azimuth Distance (km) Brightness Sun altitude
Rises 19:15:31 0° 253° (WSW) 3,560 12.5 -21.2°
Reaches altitude 10° 19:19:06 10° 229° (SW) 2,982 11.5 -22.0°
Maximum altitude 19:23:14 15° 195° (SSW) 3,019 11.0 -23.0°
Drops below altitude 10° 19:28:28 10° 163° (SSE) 3,954 11.2 -24.2°
Sets 19:34:41 0° 143° (SE) 5,534 11.8 -25.6°
